Tracking 17154 objects as of 3-August-2015
HD Live streaming from Space Station

SINAH 1

Track SINAH 1 now!
10-day predictions
SINAH 1 is classified as:


NORAD ID: 28893
Int'l Code: 2005-043D
Perigee: 685.2 km
Apogee: 707.8 km
Inclination: 97.8 °
Period: 98.6 minutes
Semi major axis: 7067 km
RCS: 0.8773 m2 (medium)
Launch date: October 27, 2005
Source: Iran (IRAN)

Sinah 1 is an Iranian microsatellite (170 kg). Iranian press reports that it is intended for "telecommunications and research".
Your satellite tracking list
Your tracking list is empty





NASA's NSSDC Master Catalog

Two Line Element Set (TLE):
1 28893U 05043D   15213.63388269  .00000263  00000-0  62212-4 0  9997
2 28893 097.8218 036.3091 0016009 151.4068 253.1134 14.61179301520335

Source of the keplerian elements: AFSPC

N2YO: 217